Regional Weather Roundup
Issued by NWS Midland/Odessa, TX

Skip options and go directly to product.
Home | Oldest Version | Previous Version | Current Version | All | Graphics & Text | Save Text | Print | Product List | Glossary On

Skip product version selection by date and time.   
021
ASUS44 KMAF 010410
RWRMAF
MIDLAND AREA WEATHER ROUNDUP
NATIONAL WEATHER SERVICE MIDLAND TX
1100 PM CDT TUE MAR 31 2015

...IN SOUTHWEST TEXAS AND SOUTHEAST NEW MEXICO...

CITY           SKY/WX    TMP DP  RH WIND       PRES   REMARKS
ALPINE         CLOUDY    60  43  54 SW3       30.12R
ANDREWS        FAIR      66  43  42 CALM      29.95S
ARTESIA        MOCLDY    64  43  45 W14       29.96R
BIG SPRING     CLOUDY    74  41  30 S8        29.95R
CARLSBAD       PTCLDY    58  45  62 SW9       29.92R
DRYDEN           N/A     69  63  81 E12       29.96S
FORT STOCKTON  MOCLDY    66  46  48 S8        29.98R
GUAD PASS      MOCLDY    58  41  53 SW17      30.08R
HOBBS          PTCLDY    57  37  47 CALM      29.97R
MARFA          CLOUDY    54  43  66 NE3       30.11R
MIDLAND AIRPK  CLOUDY    73  44  34 SE3       29.94S
MIDLAND INTL   CLOUDY    68  50  52 SE7       29.94R
ODESSA         CLOUDY    68  47  46 SW6       29.95R
PECOS          CLOUDY    68  45  43 S6        29.93S
PRESIDIO       CLOUDY    64  55  72 E13G21    30.02S
SEMINOLE       MOCLDY    62  42  49 CALM      29.96S
SNYDER         MOCLDY    68  51  54 E3        29.91F
WINK           CLOUDY    69  46  43 S8        29.93R
$$
...OTHER STATIONS IN TEXAS...

CITY           SKY/WX    TMP DP  RH WIND       PRES   REMARKS
ABILENE        MOCLDY    71  50  47 S8        29.88F
AMARILLO       CLEAR     61  39  44 S8        29.88F
AUSTIN         PTCLDY    69  66  90 S9        29.95S
BROWNSVILLE    MOCLDY    72  69  90 SE10      30.00R
CORPUS CHRISTI CLOUDY    71  68  90 S18       29.95F
DALLAS FTW     CLOUDY    72  60  66 S14       29.89R
DEL RIO        CLOUDY    70  63  78 E9        29.93S
EL PASO        PTCLDY    67  42  40 S14       30.00R
HOUSTON INT    CLOUDY    72  66  81 S7        29.99S
LUBBOCK        CLOUDY    61  46  57 W5        29.90S
SAN ANGELO     CLOUDY    72  60  66 S16       29.94R
SAN ANTONIO    PTCLDY    70  64  81 S9        29.98R
WACO           PTCLDY    67  61  81 S10       29.91F
WICHITA FALLS  NOT AVBL
$$
...OTHER LOCATIONS IN NEW MEXICO...

CITY           SKY/WX    TMP DP  RH WIND       PRES   REMARKS
ALAMAGORDO     MOCLDY    66  41  39 S16G26    30.00S
ALBUQUERQUE    PTCLDY    62  23  22 S7        29.99R
CANNON AFB     NOT AVBL
CLOVIS         CLEAR     61  37  41 SW12      29.94R
HOLLOMAN AFB   MOCLDY    68  42  39 SE18      29.98R
ROSWELL        PTCLDY    63  40  42 S8        29.92F
RUIDOSO        PTCLDY    52  28  40 SW13      30.11S
SANTA FE       CLEAR     47  20  34 N5        30.03S
TRUTH OR CONSE CLEAR     62  30  29 NW10      29.98R
TUCUMCARI      CLEAR     60  27  28 S6        29.88R
$$

USA.gov is the U.S. government's official web portal to all federal, state and local government web resources and services.